Regional Weather Roundup
Issued by NWS

Home | Current Version | Previous Version | Graphics & Text | Print | Product List | Glossary On
Versions: 1 2 3 4 5 6 7 8 9 10 11 12 13 14 15 16 17 18 19 20 21 22 23 24 25 26 27 28 29 30 31 32 33 34 35 36 37 38 39 40 41 42 43 44 45 46 47 48 49 50
000
ASUS45 KTFX 301919
RWRMT
MONTANA HOURLY WEATHER ROUNDUP
NATIONAL WEATHER SERVICE GREAT FALLS MT
119 PM MDT SAT AUG 30 2014

NOTE: "FAIR" INDICATES FEW OR NO CLOUDS BELOW 12000 FEET WITH NO
SIGNIFICANT WEATHER AND/OR OBSTRUCTIONS TO VISIBILITY.

* THESE STATIONS ARE NOT UNDER NWS QUALITY CONTROL. THEY DO NOT
   REPORT WEATHER SUCH AS PRECIPITATION OR FOG.

MTZ001>007-043-302000-
WEST OF THE DIVIDE
CITY           SKY/WX    TMP DP  RH WIND       PRES   REMARKS
KALISPELL      PTCLDY    72  39  30 SW13G21   29.80F
MISSOULA       PTSUNNY   73  43  34 NW16G21   29.86F
BUTTE          CLOUDY    61  46  58 NE6       29.93F
MULLAN PASS    CLOUDY    52  39  61 VRB6      29.98S
* LINCOLN      N/A       64  45  50 W5G15      N/A
* LOOKOUT PASS N/A       57  40  53 SE8G14     N/A
* POLSON       N/A       74  41  31 SW4G10     N/A
* RONAN APT    PTCLDY    70  41  35 SW6        N/A
* SEELEY LAKE  N/A       66  44  45 NW8G16     N/A
* THOMP F APT  PTCLDY    49  46  89 W4G19      N/A
$$

MTZ008-052>055-302000-
SOUTHWEST MONTANA
CITY           SKY/WX    TMP DP  RH WIND       PRES   REMARKS
BOZEMAN        CLOUDY    63  50  63 SW5       29.88F
DILLON         CLOUDY    63  52  68 SW8       29.90F
W YELLOWSTONE  LGT RAIN  46  46 100 S6        30.09R VSB 2
* THREE FORKS  CLOUDY    63  63 100 N/A        N/A
* BOULDER HILL N/A       59  44  58 SW1        N/A
* MONIDA PASS  N/A       49  48  96 SE6G17     N/A
* RAYNOLDS PAS N/A       48  30  50 S2         N/A
* WHITEHALL    N/A       65  52  63 SE2        N/A
* WISE RIVER   N/A       60  48  65 W6         N/A
$$

MTZ009>010-012-014-046-048-049-054-302000-
EAST SLOPES AND CENTRAL MONTANA
CITY           SKY/WX    TMP DP  RH WIND       PRES   REMARKS
CUT BANK       CLOUDY    70  41  35 W17       29.78S
GREAT FALLS    CLOUDY    73  39  29 W18G24    29.79F
HELENA         CLOUDY    72  41  33 W13       29.83S
MALMSTROM AFB  PTSUNNY   72  41  33 W17G22    29.80F
* CONRAD       CLOUDY    70  41  35 SW11G20    N/A
* EAST GLACIER N/A       59  35  41 NW12G17    N/A
* MONARCH      N/A       63  36  37 W17G24     N/A
* PENDROY      N/A       63  37  38 W6         N/A
* ROGERS PASS  N/A       60  42  52 SE11G19    N/A
* SAINT MARY   N/A       62  37  40 S7G16      N/A
* SWEET GRASS  N/A       68  43  40 NW8        N/A
* WHITE SULPH  N/A       65  46  50 NW4        N/A
$$

MTZ011-013-016-021-035-040-045-047-050-051-302000-
NORTH CENTRAL MONTANA
CITY           SKY/WX    TMP DP  RH WIND       PRES   REMARKS
HAVRE          PTSUNNY   75  45  34 W9        29.71F
LEWISTOWN      PTSUNNY   68  46  45 NW3       29.83S
* CHINOOK      CLOUDY    73  46  38 SW6       29.71F
* FORT BENTON  PTCLDY    75  43  32 NW6       29.74F
* CHESTER      N/A       71  39  31 W5G10      N/A
* DENTON       N/A       71  47  43 SW6G17     N/A
* GEYSER       N/A       71  41  34 W15G21     N/A
* JUDITH GAP   N/A       64  47  54 S4         N/A
* LOMA         N/A       74  43  33 W9G21      N/A
$$

MTZ017>020-022>027-061-062-302000-
NORTHEAST MONTANA
CITY           SKY/WX    TMP DP  RH WIND       PRES   REMARKS
GLASGOW        LGT RAIN  63  61  93 CALM      29.72F
GLENDIVE       CLOUDY    72  57  59 SE5       29.73F
JORDAN         CLOUDY    63  59  87 CALM      29.76F
SIDNEY         CLOUDY    72  61  68 S13G18    29.76F
WOLF POINT     LGT RAIN  64  57  78 CALM      29.73F
* BEAVER HILL  N/A       73  58  59 SE14G21    N/A
* CIRCLE       N/A       64  58  81 N/A        N/A
* LINDSAY DVD  N/A       67  58  73 S4         N/A
* NAVAJO       N/A       59  56  90 S4G9       N/A
$$

MTZ028>042-056>058-302000-
SOUTHCENTRAL AND SOUTHEAST MONTANA
CITY           SKY/WX    TMP DP  RH WIND       PRES   REMARKS
BAKER          PTCLDY    75  57  54 SE14G23   29.77F
BILLINGS       CLOUDY    66  52  61 SE9       29.84S
LIVINGSTON     LGT RAIN  63  48  58 W12       29.87S
MILES CITY     CLOUDY    72  54  53 N/A       29.76R
* LAUREL APT   CLOUDY    64  48  56 N/A        N/A
* ROUNDUP APT  PTCLDY    66  52  61 N/A        N/A
* HYSHAM       N/A       68  48  49 N9G14      N/A
* LAME DEER    N/A       65  52  63 NW12G22    N/A
* REED POINT   N/A       67  49  53 N/A        N/A
* ROSCOE HILL  N/A       56  48  75 S8G14      N/A
$$

REGIONAL REPORTS...DAKOTAS
CITY           SKY/WX    TMP DP  RH WIND       PRES   REMARKS
WILLISTON      CLOUDY    73  57  57 SE13      29.75F
DICKINSON      SUNNY     72  57  59 SE20      29.78F
BEACH          N/A       72  63  73 S16G23    29.78F
CROSBY         SUNNY     70  55  59 S13G21    29.75F
TIOGA          SUNNY     72  55  55 S22G30    29.81F
WATFORD CITY   SUNNY     73  55  53 SE17G24   29.74F
BISMARCK       SUNNY     72  54  53 S9G18     29.86F
GRAND FORKS    SUNNY     72  52  49 NE5       29.88F
FARGO          PTCLDY    70  55  59 NE6       29.88F
BUFFALO SD     SUNNY     75  57  54 SE25G30   29.70F
RAPID CITY     SUNNY     81  57  44 SE18      29.80F HI  81
$$

REGIONAL REPORTS...WYOMING/IDAHO/WASHINGTON
CITY           SKY/WX    TMP DP  RH WIND       PRES   REMARKS
GILLETTE       PTCLDY    86  45  24 S13G23    29.78F
SHERIDAN       PTSUNNY   73  52  48 NW9       29.82F
CODY           PTCLDY    72  50  46 NE13      29.82F
YELLOWSTONE LA PTSUNNY   46  41  83 NW13G26   30.11S
SALMON         TSTM      57  54  90 SE7       29.89R
MULLAN PASS    CLOUDY    52  39  61 VRB6      29.98S
SAND POINT     PTSUNNY   66  45  47 SW7       29.86F
SPOKANE        CLOUDY    70  45  41 S17G24    29.88F
$$

REGIONAL REPORTS...ALBERTA
CITY           SKY/WX    TMP DP  RH WIND       PRES   REMARKS
CALGARY        PTCLDY    61  41  48 VRB3      29.76F
LETHBRIDGE     PTCLDY    68  48  49 VRB6      29.75F
MEDICINE HAT   PTCLDY    72  48  43 NW9       29.71F
EDMONTON       PTSUNNY   64  43  47 NW9       29.70S
WATERTON GATE  N/A       66  39  37 SW10G17    N/A
CARDSTON       N/A       63  48  58 W2         N/A
MILK RIVER     N/A       68  45  44 NW5        N/A
$$

REGIONAL REPORTS...SASKATCHEWAN
CITY           SKY/WX    TMP DP  RH WIND       PRES   REMARKS
SWIFT CURRENT  SUNNY     70  52  53 NW14G20   29.68S
REGINA         CLOUDY    68  57  68 S16G22    29.68F
ASSINIBOIA     N/A       68  54  61 SW14G21    N/A
CORONACH       N/A       61  57  87 S5         N/A

$$




USA.gov is the U.S. government's official web portal to all federal, state and local government web resources and services.